Wind_Speed
42 42 42 42 42 42 42 43 42 42 41 41 41 42 41 40 39 38 38 37 36 35 33 32 31 30 30 30 31 30 30 30 30 29 29 28 27 27 26 25 24 23 21 19 19 20 20 19 16 13 12 11 11 10 9 8 7 8 8 8 7 8 9 9 10 12 14 12 12 12 12 13 15 14 16 18 18 16 16 15 15 15 15 15 14
43 43 42 42 42 43 42 42 42 41 41 41 42 42 41 41 40 39 38 38 37 37 36 35 34 33 33 33 33 33 32 31 30 31 30 30 29 28 27 27 27 26 24 22 21 20 21 21 20 16 13 13 13 12 11 11 10 10 11 11 12 11 11 12 12 12 15 16 15 15 15 15 16 17 18 19 19 18 17 15 14 15 15 15 15
43 42 42 42 43 43 42 41 41 41 41 41 41 42 41 41 40 39 39 38 37 37 37 35 34 35 35 35 34 34 34 33 31 31 31 31 30 29 28 27 27 28 27 26 24 22 21 22 23 21 18 17 17 16 15 15 14 14 13 14 15 15 14 15 15 14 16 18 18 18 18 18 19 19 19 19 19 19 18 17 17 16 16 16 17
41 41 41 42 43 42 41 41 40 40 40 41 41 42 42 41 40 40 39 38 38 38 37 36 35 35 36 36 35 35 35 34 33 32 32 31 31 31 30 28 27 27 28 27 26 25 23 22 23 22 20 20 20 20 19 19 18 18 16 16 16 15 15 16 17 17 17 18 19 20 20 20 21 20 20 20 19 18 18 19 19 19 18 16 17
40 40 40 40 40 41 41 40 40 40 41 41 41 41 41 41 40 40 39 39 38 38 37 37 36 36 37 36 36 36 36 36 35 33 32 32 32 32 31 30 29 28 28 27 26 26 25 24 24 22 21 21 21 21 21 20 20 19 18 18 18 17 16 15 16 18 19 20 21 21 21 20 22 22 20 20 21 20 20 20 20 20 19 17 17
39 39 40 39 39 40 41 41 40 41 41 41 40 40 40 40 40 40 40 39 38 38 37 37 37 37 38 37 37 37 37 36 36 35 34 33 33 32 32 32 31 30 29 27 26 26 25 25 25 24 23 23 23 22 22 21 20 20 19 19 18 18 17 16 16 17 19 21 21 22 22 22 23 23 22 20 21 21 22 24 22 19 18 19 18
39 39 39 39 39 40 41 41 41 40 41 41 40 39 39 39 39 40 40 39 38 38 37 38 38 38 38 38 38 38 37 37 37 36 35 34 33 33 33 32 32 32 31 29 28 27 26 26 26 26 26 26 25 24 23 22 21 21 21 20 19 19 18 18 18 18 19 20 20 21 23 24 24 24 24 21 20 20 21 25 25 22 20 20 17
38 38 38 38 39 40 40 40 40 40 40 41 40 39 39 39 39 39 39 39 39 38 38 38 38 38 39 39 39 39 38 38 37 36 35 34 34 34 33 33 33 32 32 31 30 29 29 28 27 27 27 28 28 27 26 25 24 23 23 22 21 20 20 20 20 20 20 20 21 22 23 24 25 26 25 22 20 21 20 20 24 26 23 19 15
37 37 38 38 38 39 38 38 38 39 39 40 40 40 39 39 39 38 38 39 39 39 38 37 37 38 39 39 39 39 38 38 38 37 36 35 34 34 34 34 34 33 33 33 32 32 31 30 30 29 28 27 28 28 27 26 25 25 25 24 23 22 22 22 21 21 22 21 22 23 22 24 26 26 25 23 22 23 22 19 22 23 22 20 19
36 36 37 38 38 38 37 37 37 38 39 39 40 40 39 39 38 38 39 39 39 39 38 37 37 38 38 38 38 38 38 39 40 39 38 37 36 35 35 35 35 34 33 33 33 33 33 33 32 31 30 28 28 27 27 26 26 26 25 25 25 24 24 24 23 23 23 21 23 23 20 23 26 25 24 25 24 23 22 21 21 19 18 21 21
36 37 37 37 37 37 37 37 37 37 39 39 39 40 39 38 38 38 39 39 39 39 38 37 37 38 38 38 38 38 38 39 40 41 40 39 38 36 35 35 35 35 34 34 33 34 34 34 34 33 32 31 29 28 27 27 27 27 26 26 26 26 26 26 26 26 24 23 24 23 21 24 28 25 23 25 25 23 22 20 18 16 15 17 18
35 37 37 37 37 37 38 38 38 38 39 39 39 39 39 38 38 37 38 38 39 38 38 38 38 37 38 38 38 38 39 40 40 41 41 41 40 38 37 36 35 35 35 35 35 34 34 34 34 34 33 32 31 30 29 27 27 26 27 27 28 28 28 28 28 28 26 25 25 26 24 25 28 26 24 25 25 23 21 18 16 16 16 16 17
34 34 36 37 38 39 38 38 39 39 39 40 39 38 38 38 38 38 37 38 38 38 39 39 39 38 37 37 38 38 39 40 41 41 41 41 41 40 38 36 36 35 36 36 36 35 35 34 34 34 34 33 32 31 30 29 28 27 28 29 30 31 31 31 31 30 29 28 27 28 28 26 27 28 27 26 25 22 21 20 20 18 18 18 20
33 34 35 37 38 38 39 39 39 39 39 39 39 38 38 38 38 38 37 37 37 37 38 39 39 39 38 38 38 38 39 41 41 42 42 42 41 41 39 37 36 35 36 36 36 36 35 35 35 35 35 34 33 32 31 31 30 30 30 31 31 32 33 34 34 34 33 32 31 32 31 29 29 31 31 29 28 26 24 24 23 20 19 20 23
32 31 33 36 37 38 39 39 39 39 39 38 38 38 38 38 38 37 36 36 37 37 38 38 39 40 40 39 38 38 39 41 42 42 43 42 41 41 41 39 36 35 35 35 35 36 36 36 36 36 35 35 34 33 32 32 31 31 32 33 32 32 32 33 34 35 35 35 35 35 34 32 32 32 31 30 30 29 26 23 20 19 18 20 22
32 31 31 34 36 37 38 38 38 38 38 38 37 38 38 38 38 37 36 36 36 36 37 38 39 40 40 39 38 38 40 41 42 43 43 42 41 40 41 40 38 36 36 35 35 36 36 35 36 36 36 36 35 34 33 32 32 32 32 32 32 32 31 31 31 33 34 34 34 35 34 32 30 28 27 26 26 27 26 22 20 18 16 16 20
29 30 30 32 35 37 37 38 37 37 37 37 37 37 37 37 37 37 36 35 35 36 36 37 38 39 40 40 39 39 40 41 42 43 43 42 41 40 40 40 39 38 38 37 37 37 37 36 36 36 37 37 37 36 34 33 33 33 32 32 30 30 31 31 30 31 31 31 32 32 31 29 26 24 22 21 23 25 26 23 22 19 15 13 16
27 29 29 31 35 37 37 38 37 37 37 37 37 37 37 37 37 37 37 36 36 36 36 36 37 38 39 40 40 40 40 40 42 43 43 43 42 41 41 40 39 39 39 38 38 38 38 38 37 37 37 38 37 36 34 33 34 34 34 33 31 30 32 32 30 28 28 28 28 27 27 25 23 21 21 20 21 24 27 27 25 21 17 16 16
21 27 30 31 33 36 38 38 38 38 38 38 37 37 37 37 37 37 38 37 36 35 35 35 36 37 39 40 41 41 40 40 41 43 43 43 42 42 41 39 37 38 39 38 37 37 39 39 38 38 38 38 38 36 35 34 34 35 35 33 31 32 34 33 30 28 27 26 26 26 24 23 21 21 21 21 21 23 26 27 25 23 22 22 20
14 17 22 28 33 35 37 39 39 39 39 38 37 37 37 37 36 37 37 37 36 35 35 35 36 36 37 38 40 41 41 40 41 42 43 42 42 42 41 39 38 38 39 38 36 36 38 39 40 39 39 39 38 37 36 35 35 35 35 33 33 34 34 32 30 28 27 25 25 24 22 21 20 21 21 20 18 19 21 22 22 23 24 25 23
19 19 18 21 30 35 36 38 40 40 39 38 37 37 37 37 36 36 36 36 35 34 34 34 35 35 37 37 39 41 42 41 41 42 42 42 42 43 42 41 40 40 40 38 37 36 37 39 40 40 40 40 39 37 37 36 36 36 36 36 36 35 34 32 30 28 26 25 24 22 21 20 20 19 19 17 16 16 17 18 18 20 23 25 24
22 23 22 19 25 33 35 37 39 39 38 37 36 36 37 36 36 36 35 35 35 35 34 33 33 34 35 37 38 40 41 42 42 43 43 43 43 43 44 43 43 42 40 37 37 37 37 39 39 40 40 41 40 38 36 34 33 34 36 36 36 36 35 33 32 29 26 24 23 21 21 20 19 19 18 17 17 16 16 18 19 19 21 22 22
25 25 24 20 22 30 35 36 38 37 36 36 37 36 35 35 35 35 34 34 33 34 33 32 32 32 33 35 37 39 39 40 42 43 43 43 43 43 44 44 44 43 41 38 38 38 39 40 39 38 38 39 40 40 38 36 34 33 33 33 32 33 32 32 31 29 26 23 21 21 21 22 22 22 22 22 21 19 18 18 19 19 19 18 17
26 26 25 22 21 28 33 35 37 37 37 36 36 35 34 35 34 33 34 33 32 32 33 31 30 30 31 32 35 37 38 39 41 42 43 42 42 43 43 44 45 45 43 41 40 39 39 40 39 38 38 37 37 38 38 38 37 37 35 33 32 31 32 32 31 28 25 23 22 23 24 25 25 26 27 27 26 24 21 19 17 16 16 15 13
27 27 26 24 22 26 31 33 36 37 37 36 36 35 34 33 32 32 33 33 32 31 31 31 30 29 29 31 33 36 37 38 39 41 43 43 42 42 42 43 44 46 46 44 42 41 41 40 39 38 37 36 35 34 34 34 34 33 32 31 30 31 32 32 31 28 25 25 26 26 27 28 29 29 29 28 27 24 23 21 19 16 14 12 11
26 26 27 25 22 25 29 31 34 36 36 37 37 36 36 34 33 32 32 33 33 32 31 31 31 30 30 31 32 33 34 36 38 40 42 43 43 43 42 42 42 44 45 45 44 42 41 40 38 37 36 34 32 31 31 30 28 27 27 28 29 29 30 31 30 28 27 28 29 29 30 31 30 29 27 26 25 23 21 20 19 17 16 14 14
24 25 26 25 22 25 28 30 32 33 34 35 34 34 35 35 34 33 33 32 32 31 31 31 31 31 31 30 30 30 32 34 37 39 40 42 44 44 43 43 41 42 44 46 46 43 41 39 37 35 33 31 29 29 29 28 27 26 27 28 28 29 29 30 30 29 29 30 30 30 30 29 27 26 25 23 22 21 19 18 18 19 18 16 14
23 24 26 26 21 24 29 31 31 31 32 34 34 33 34 35 34 34 36 35 33 31 31 31 32 33 31 29 28 28 30 33 37 39 41 42 44 44 44 44 43 44 45 46 46 44 40 37 34 31 29 28 27 28 28 27 26 25 25 25 26 27 29 29 29 29 29 30 29 29 28 27 26 24 23 21 20 19 17 17 18 19 18 15 13
24 24 24 24 21 22 29 30 31 32 32 33 35 35 36 37 37 37 38 39 39 37 35 34 35 34 33 32 31 29 30 36 43 44 43 44 45 45 44 44 45 45 45 45 45 42 37 34 30 28 26 26 26 26 25 24 22 21 20 19 19 20 22 24 26 29 30 30 29 28 28 27 25 23 21 20 19 18 17 17 17 17 15 13 13
23 23 21 22 21 19 26 29 29 31 32 32 33 33 33 35 37 37 37 40 42 42 41 39 38 36 35 36 38 37 37 40 42 41 42 44 46 46 45 44 44 43 43 43 40 36 32 30 29 28 28 27 26 25 24 23 21 20 20 19 19 19 19 20 22 25 28 29 29 28 27 26 24 22 20 19 18 17 16 16 16 15 14 14 14
20 20 19 21 24 18 21 27 27 29 32 31 29 28 28 31 34 36 37 38 41 42 42 41 40 39 40 40 40 40 41 40 36 35 38 43 45 45 45 44 43 42 41 41 38 34 31 29 29 29 30 29 28 27 26 25 24 24 23 22 21 21 21 22 23 24 25 27 28 27 26 26 24 22 20 18 17 16 15 15 15 15 15 16 14
20 19 18 20 23 19 14 20 23 23 25 27 29 29 28 27 29 33 35 37 39 41 42 42 41 42 44 44 41 40 41 40 37 35 36 38 42 44 44 43 43 42 41 40 36 33 32 31 29 30 30 29 29 29 28 27 27 26 25 23 23 24 24 24 25 25 26 27 27 27 26 26 25 22 19 17 15 13 13 13 14 15 15 13 10
21 20 19 19 19 16 8 6 10 11 12 14 20 27 30 27 26 28 30 31 34 37 40 42 43 43 45 45 44 43 43 43 41 38 35 34 37 39 40 42 42 42 41 38 34 32 32 32 31 31 31 30 30 30 29 29 29 28 27 26 26 26 26 25 24 25 27 27 27 27 27 26 25 22 19 17 16 15 14 14 14 15 12 9 7
24 20 18 18 17 13 8 4 4 10 14 16 18 23 29 33 32 30 28 26 27 31 35 39 42 44 45 45 44 44 44 43 42 41 38 35 34 33 35 39 40 40 39 37 35 33 32 32 32 32 31 30 30 29 28 28 28 27 27 26 27 27 26 25 25 26 27 27 27 28 27 26 25 23 20 19 18 17 16 16 14 13 10 9 9
26 23 18 16 14 12 12 10 7 9 16 24 29 30 33 37 37 33 30 28 28 29 32 37 41 43 44 44 44 43 43 42 41 40 39 37 34 32 32 34 34 33 34 34 34 34 33 32 33 33 32 30 30 29 28 27 27 26 26 26 26 27 27 27 27 27 27 27 27 28 27 26 25 24 21 20 20 20 19 17 14 11 10 8 7
27 26 23 18 13 11 12 12 11 10 13 22 29 30 30 32 34 33 33 32 32 30 30 33 35 37 38 41 42 41 40 40 38 37 37 38 37 35 33 33 31 32 33 34 34 32 30 28 28 28 28 27 26 26 26 26 26 26 26 26 25 26 27 28 29 29 28 26 25 25 25 25 24 21 19 18 19 19 19 16 13 10 9 8 7
26 26 26 24 16 13 15 17 18 20 23 29 32 31 29 30 31 31 30 30 28 26 26 28 30 29 30 34 37 38 37 37 36 36 36 36 36 36 36 35 33 31 29 26 24 23 22 23 23 22 22 22 23 23 23 23 23 23 24 24 24 25 26 27 28 29 27 25 25 25 25 24 23 20 18 17 17 16 14 12 10 8 7 7 8
27 26 26 26 21 15 14 18 21 24 28 32 35 35 33 32 30 28 26 25 23 21 22 26 28 28 29 31 32 32 32 32 31 32 33 33 34 35 33 30 29 28 26 23 22 23 24 24 24 23 21 21 22 22 21 20 20 20 21 21 21 22 23 25 26 26 25 25 26 25 24 22 20 17 17 17 15 13 11 9 8 6 5 4 5
28 28 28 26 23 20 15 15 21 24 26 29 32 31 27 23 19 16 15 15 14 15 19 24 26 27 29 30 30 29 28 27 26 27 28 29 32 32 28 24 25 26 24 22 22 23 23 22 21 21 19 18 18 18 17 17 17 16 16 17 16 16 17 18 19 20 20 20 20 18 16 16 17 17 16 14 12 11 10 8 6 6 5 4 3
28 28 29 28 26 24 18 13 15 20 23 25 26 26 25 23 21 21 20 19 18 19 22 25 24 23 25 28 28 27 26 23 22 24 25 26 27 27 24 23 24 24 22 21 23 25 24 22 19 19 17 16 15 14 13 12 11 11 12 13 13 14 15 16 16 16 15 14 14 13 14 15 16 15 13 11 11 11 10 8 7 6 6 5 4
28 28 28 29 28 26 22 16 11 12 17 22 25 26 26 28 30 31 31 29 27 27 25 22 18 17 21 26 28 29 28 25 23 24 24 24 24 23 22 22 23 24 25 26 28 28 26 23 20 19 19 17 16 15 14 13 13 13 14 15 16 17 17 16 15 14 14 14 14 14 14 13 13 12 11 10 10 10 9 8 7 7 7 6 6
26 27 27 28 29 28 26 22 17 11 7 13 19 23 25 26 28 28 26 24 24 25 22 17 15 16 20 25 28 31 32 30 27 24 23 21 20 20 20 21 23 25 27 27 27 27 26 25 23 22 21 20 19 19 19 20 21 21 20 18 18 18 17 16 15 15 15 16 15 14 13 11 10 10 10 9 8 7 8 7 7 7 7 7 7
23 25 26 26 27 27 26 24 21 18 13 7 6 14 20 21 21 20 18 17 20 22 21 21 22 21 20 21 23 26 28 29 27 25 24 22 21 22 23 23 24 25 25 26 26 26 26 25 24 23 22 22 21 22 22 22 22 22 20 19 18 18 17 17 16 15 15 15 14 13 12 11 10 9 8 8 8 7 8 8 7 7 7 7 7
21 23 25 25 25 26 26 25 23 21 19 16 11 1 8 14 15 16 17 19 20 22 24 26 28 28 25 23 24 25 27 29 29 28 27 27 26 26 25 25 26 26 27 26 26 26 26 25 25 24 23 22 21 21 21 21 21 21 21 21 20 19 18 17 16 15 15 14 13 11 10 9 8 7 6 7 7 7 6 6 6 5 4 4 4
20 22 24 25 24 25 26 26 24 23 20 19 17 11 9 15 19 21 24 24 24 26 28 29 29 29 28 29 30 31 31 32 32 31 30 28 28 28 28 27 27 28 28 28 27 27 27 27 27 26 25 23 22 21 21 21 21 20 20 20 20 19 18 16 16 15 15 14 13 12 11 11 9 8 7 7 6 5 5 5 5 6 7 8 8
19 20 23 24 24 24 25 25 24 23 23 22 20 15 11 17 20 20 21 21 20 21 24 27 29 31 31 31 33 35 35 36 36 34 32 30 29 29 29 29 30 31 31 30 30 29 29 29 29 30 28 27 25 24 23 22 21 20 19 19 19 18 17 16 15 14 14 14 14 13 13 12 12 12 12 11 11 11 11 11 11 11 11 11 10
18 20 21 22 23 24 24 24 23 23 22 23 21 18 14 18 23 23 23 22 20 19 20 22 25 28 30 31 33 34 35 36 37 36 35 33 31 30 31 32 32 33 33 33 32 32 31 30 30 31 30 28 27 26 25 23 22 21 20 19 19 18 16 15 14 13 14 14 13 13 13 13 13 13 12 11 11 11 11 11 10 10 10 10 10
18 19 20 21 22 23 24 23 23 22 21 21 22 20 19 21 25 26 26 26 25 24 24 25 25 26 28 31 34 35 35 36 37 37 36 35 33 32 33 34 34 34 34 34 33 32 32 31 30 29 28 27 26 26 25 23 22 22 21 20 19 18 16 15 14 14 13 13 12 11 11 11 11 11 9 9 9 8 8 8 8 8 8 7 7
19 20 20 21 21 22 22 23 22 21 20 21 20 19 20 23 26 27 28 29 28 27 28 29 28 27 27 30 33 34 35 36 37 37 36 35 34 33 33 34 35 34 34 34 33 32 31 31 30 29 28 27 26 25 23 22 21 21 20 19 18 16 15 14 14 13 12 11 11 10 10 10 10 9 9 8 8 7 7 8 8 7 7 7 6
19 20 21 21 21 21 22 22 22 21 21 22 20 18 19 22 24 26 29 32 31 29 30 31 31 30 28 29 31 33 34 35 36 37 37 36 35 34 34 33 33 33 33 32 32 31 30 29 29 28 27 26 25 24 24 22 21 20 19 17 15 14 12 11 11 11 10 9 9 9 9 8 9 9 9 9 9 9 9 10 10 9 9 9 9
20 20 21 22 22 22 23 23 23 22 22 22 21 20 20 21 21 23 27 29 29 29 30 30 31 32 32 31 30 32 35 36 35 35 35 35 34 34 35 33 32 32 32 32 31 30 28 27 26 26 25 25 24 23 23 22 21 19 16 14 13 12 11 10 10 10 9 8 8 8 8 9 10 10 10 10 10 11 11 11 11 10 10 10 10
Wind_Direction
198 200 202 204 206 208 209 210 211 211 210 209 210 212 213 214 215 215 216 217 217 216 217 219 221 220 220 220 220 218 217 215 215 217 220 222 222 219 218 217 218 218 218 220 222 222 223 227 231 233 235 235 233 234 235 232 232 237 245 252 250 245 243 237 241 267 289 300 305 311 318 318 317 321 323 323 325 326 322 319 321 324 325 327 328
198 200 202 204 206 208 210 211 212 212 212 212 212 213 214 215 216 215 216 218 219 219 219 221 222 222 222 223 222 220 219 218 217 218 220 223 225 224 221 220 220 220 219 221 223 224 224 226 228 231 233 235 235 233 233 234 236 242 243 243 250 252 248 246 244 255 279 294 303 308 312 314 314 317 321 321 322 325 323 323 327 328 328 327 326
199 200 201 204 207 208 210 211 212 213 213 213 214 214 214 215 216 216 217 218 219 220 221 221 221 222 223 223 223 222 221 220 219 220 221 223 225 223 221 220 219 218 219 221 223 225 226 226 226 227 229 233 235 233 234 237 242 246 246 243 250 256 256 255 251 250 266 283 296 301 305 308 308 311 316 317 319 321 320 321 324 324 325 324 321
199 201 202 204 206 208 210 211 212 213 214 215 216 216 216 216 216 216 218 219 219 220 222 222 222 223 223 223 223 222 221 221 221 222 223 224 224 223 222 222 221 220 221 222 223 226 228 227 224 224 227 232 235 236 237 240 245 248 248 247 250 256 259 258 258 258 261 270 283 291 295 299 302 306 311 313 316 318 317 319 322 322 322 323 321
199 201 203 205 206 207 209 211 212 213 215 216 217 217 216 216 216 217 218 219 220 221 221 221 222 223 223 223 223 222 222 221 221 222 225 226 226 225 224 224 225 225 225 225 226 227 229 229 226 225 229 234 237 239 240 242 245 245 246 248 251 257 261 260 261 263 261 263 273 284 290 293 296 302 306 310 313 314 314 318 321 321 321 324 325
199 201 203 204 206 208 209 210 212 213 215 217 219 219 218 217 217 217 218 219 220 221 221 220 221 222 223 224 224 224 223 222 221 223 225 225 226 226 226 226 227 229 230 230 229 231 232 233 231 229 231 235 238 240 243 244 245 244 244 247 251 257 262 264 264 264 263 264 271 280 287 291 294 299 304 308 309 309 312 316 319 321 322 324 326
198 200 202 204 206 208 209 210 211 213 215 217 218 219 220 219 218 218 219 219 220 221 221 221 221 222 224 224 224 225 224 223 223 224 224 225 225 226 227 229 230 231 233 234 234 235 236 237 236 234 233 235 238 241 244 247 247 247 247 249 253 256 261 266 267 265 264 267 271 276 283 289 292 295 300 304 303 301 306 313 316 320 322 322 323
198 200 202 204 207 209 210 211 212 214 216 217 218 219 220 220 220 219 219 219 220 221 221 222 222 222 224 225 225 225 224 224 223 223 223 224 224 226 227 229 231 233 235 236 236 238 240 241 241 241 239 238 239 241 245 248 250 251 252 253 255 256 258 262 265 265 265 267 271 275 280 285 288 290 294 296 296 298 305 309 308 313 318 318 319
198 200 202 204 207 209 210 211 213 214 215 217 218 218 219 220 220 220 220 219 220 221 222 223 223 223 224 225 225 225 224 224 224 224 224 223 224 226 227 228 230 233 235 236 238 239 241 243 245 247 247 245 244 244 245 248 251 253 254 255 256 256 258 260 260 263 265 265 268 272 275 279 282 286 290 292 294 299 305 305 300 306 312 311 314
198 200 203 205 207 208 209 211 212 214 215 217 218 218 219 219 219 220 220 220 220 221 222 222 223 223 224 224 224 224 223 224 225 226 226 226 225 225 226 227 229 231 234 236 237 239 240 243 245 248 250 251 250 249 249 251 253 255 256 256 256 256 257 257 257 259 261 261 265 268 270 274 278 282 286 291 296 298 301 302 299 302 309 310 316
198 201 204 206 207 207 208 210 211 214 215 217 218 218 219 219 220 220 220 220 220 220 221 221 222 223 224 224 224 223 224 225 226 227 228 228 227 225 225 227 228 229 232 234 236 238 239 241 244 247 249 250 251 252 252 253 254 256 256 254 254 255 255 254 255 257 257 257 262 265 265 269 276 281 284 291 297 297 298 300 296 297 307 314 316
197 201 204 205 206 207 207 208 210 213 215 216 217 218 218 219 220 220 220 220 219 219 220 220 221 222 223 223 223 223 224 226 227 228 229 230 229 227 226 226 227 228 230 233 236 238 239 241 243 246 248 249 251 253 253 254 254 254 255 254 254 256 256 255 256 256 255 255 259 262 262 267 275 281 285 291 295 297 299 297 290 291 303 307 303
201 202 203 204 205 206 206 208 209 211 213 215 216 217 218 218 219 220 220 220 219 219 219 220 221 222 222 223 223 224 225 226 228 229 230 231 230 228 227 226 227 228 230 232 234 236 239 240 242 245 248 249 250 252 254 255 255 255 256 257 258 257 257 257 257 258 259 258 259 262 265 269 275 281 287 292 293 294 293 291 290 293 299 300 299
207 207 206 205 205 205 206 206 208 210 212 213 214 215 216 217 219 220 220 220 219 219 218 219 220 221 222 223 223 224 225 226 228 229 231 232 231 230 228 228 229 230 231 232 234 236 238 239 241 245 248 249 249 250 252 254 255 256 258 260 261 260 258 257 257 257 258 258 259 263 267 271 275 283 291 292 290 290 289 289 292 294 295 297 300
211 212 211 209 207 206 206 206 207 208 209 210 211 213 215 217 217 218 220 220 220 219 218 219 219 220 222 222 223 224 225 227 228 229 231 232 232 231 230 230 231 232 234 235 236 237 239 240 242 245 248 250 251 251 251 252 254 256 259 261 262 262 260 258 257 257 257 258 260 264 269 273 278 286 292 293 292 292 291 291 292 292 293 296 298
210 213 214 213 210 207 206 206 206 206 207 207 209 211 213 215 216 217 218 220 220 220 219 219 219 219 221 222 222 224 226 227 228 230 232 232 232 231 230 230 231 233 235 237 238 240 241 241 242 245 247 250 253 254 253 253 254 255 258 261 263 264 263 262 260 259 260 261 263 267 271 276 280 285 289 290 291 292 291 290 288 285 284 285 288
215 215 214 213 212 209 207 206 205 205 205 205 207 210 212 214 215 216 216 218 220 220 219 219 219 219 220 220 221 223 225 227 228 230 232 232 230 229 229 229 230 233 236 238 240 242 243 243 244 245 247 250 253 255 254 252 252 253 256 260 263 264 266 267 265 264 263 263 266 269 272 274 276 278 280 283 286 287 284 280 280 280 273 267 274
228 224 220 215 212 210 208 207 206 205 205 206 207 209 211 213 214 215 215 217 219 220 219 220 219 219 219 220 221 223 225 227 228 229 231 231 230 228 228 228 229 232 236 239 240 242 243 245 246 246 247 251 254 255 254 252 251 252 254 257 260 262 265 267 267 267 267 267 267 268 270 272 272 271 274 280 285 284 280 276 276 276 266 259 264
241 235 229 221 215 211 209 208 207 206 207 207 208 209 210 212 213 214 215 217 219 220 220 220 219 219 220 220 221 223 225 227 229 229 230 231 229 228 227 226 228 232 236 238 239 241 243 245 246 246 248 251 253 255 255 253 251 252 254 254 255 258 263 265 265 266 267 267 267 269 270 270 271 273 279 283 284 280 278 276 274 268 260 260 263
289 271 248 230 219 214 212 210 208 208 208 208 209 209 210 211 212 213 214 216 218 220 220 220 220 220 220 220 221 222 224 226 228 230 230 230 229 228 225 224 226 231 235 237 238 239 241 243 245 245 247 250 252 252 253 252 251 253 253 250 251 256 261 263 264 265 266 266 268 269 269 269 272 276 280 281 277 274 274 274 270 261 256 259 261
315 312 293 250 225 217 215 213 210 210 210 209 209 209 210 210 211 212 213 214 216 219 220 220 220 221 221 220 220 222 223 225 227 230 230 230 229 228 224 223 226 230 233 235 236 237 239 241 243 244 245 246 248 249 250 250 250 252 252 250 252 257 260 262 263 265 265 266 267 266 266 268 271 273 273 272 270 269 269 269 266 258 252 254 258
318 316 310 278 236 220 216 215 212 211 211 209 208 208 209 210 210 211 211 212 214 217 219 220 220 221 221 220 220 221 222 224 226 229 230 230 230 228 225 226 229 230 231 233 234 235 238 241 244 245 245 244 245 247 247 248 249 250 252 253 256 258 259 260 262 263 264 264 264 262 262 263 264 264 266 268 268 264 261 261 262 259 255 257 260
321 317 311 291 250 225 217 215 213 212 210 208 207 207 208 208 209 209 210 210 212 215 217 219 219 220 220 220 220 221 221 222 224 227 229 230 230 229 228 229 230 230 229 231 234 236 238 242 245 248 248 247 247 247 247 248 249 250 251 253 255 257 258 259 260 260 261 260 258 255 256 258 259 262 265 268 269 266 262 261 262 262 260 259 259
322 317 311 297 262 231 219 214 213 211 210 208 206 206 206 206 206 207 208 209 210 213 216 217 217 218 219 219 219 220 220 220 222 226 228 229 230 230 229 230 231 231 230 232 235 237 241 244 248 250 250 250 251 251 251 251 252 254 256 257 258 259 258 258 259 258 258 256 253 253 256 258 261 264 268 272 274 273 269 266 265 264 260 256 256
321 317 312 300 270 238 222 215 212 211 209 205 204 204 204 203 204 205 206 207 209 212 214 215 216 218 218 219 219 218 218 218 220 224 227 228 230 230 230 230 231 231 232 234 237 239 243 247 249 251 252 253 254 254 254 255 257 259 261 261 262 261 260 258 258 256 254 253 253 255 259 262 265 270 275 280 281 278 273 268 262 255 249 245 246
319 316 314 304 275 241 223 215 211 209 207 205 204 203 201 201 202 203 204 206 209 211 212 213 215 218 219 220 219 218 216 217 219 222 225 227 229 230 231 232 232 232 234 238 240 241 244 247 249 251 252 253 254 254 256 258 259 260 260 260 261 261 261 260 257 253 250 252 253 256 260 265 270 274 278 281 281 279 276 267 255 244 239 240 238
317 314 316 309 279 240 221 214 209 206 205 203 203 203 202 201 201 202 203 205 209 211 212 212 214 217 219 221 220 218 216 217 218 221 223 225 228 230 231 233 234 234 234 237 239 240 241 244 247 249 252 254 255 256 257 257 257 258 259 260 261 260 260 260 257 254 252 253 255 257 262 266 270 272 275 278 279 279 276 265 252 244 241 237 231
317 312 315 313 286 242 221 213 207 203 202 202 200 200 201 202 203 205 205 206 207 209 211 213 215 216 217 219 219 218 217 218 219 220 221 223 226 228 230 232 233 234 234 236 237 238 239 242 244 246 248 250 250 250 250 251 252 254 256 258 259 259 257 256 253 252 253 253 254 257 261 264 265 268 273 277 278 275 271 262 252 244 235 226 220
319 314 315 317 298 250 223 213 206 201 200 200 201 201 201 202 204 208 210 211 211 212 212 214 216 216 217 218 218 216 217 220 222 222 221 222 225 227 228 230 232 233 236 238 237 234 234 236 239 239 239 239 239 239 239 240 241 243 246 250 254 256 257 254 251 251 252 251 251 254 257 260 263 267 271 274 272 270 266 257 246 237 227 219 217
320 317 317 322 310 264 226 214 207 202 199 199 199 199 201 203 206 209 212 214 216 217 217 217 217 217 217 220 221 220 221 224 226 225 223 224 227 228 229 231 231 232 235 237 233 228 227 229 230 230 229 229 229 229 230 232 234 238 241 245 249 254 258 259 257 256 254 251 250 252 256 258 262 266 268 267 266 266 262 251 242 235 223 213 212
318 317 316 322 320 291 236 216 208 203 201 199 195 192 194 200 206 211 214 216 218 220 221 221 220 219 220 222 224 225 227 229 230 229 227 227 229 230 231 232 232 233 235 234 228 221 220 222 223 223 224 225 225 226 229 232 236 240 242 244 247 250 252 254 256 256 253 250 249 250 252 255 260 264 263 260 259 257 252 242 233 226 216 208 209
318 316 313 316 321 311 262 224 213 208 202 196 190 188 189 195 204 211 214 216 218 220 222 222 222 223 224 225 225 226 228 229 230 231 230 230 231 231 232 232 234 235 235 231 224 218 217 217 219 221 221 222 224 227 229 232 236 239 240 241 245 247 248 251 254 253 250 247 246 246 248 252 257 258 254 250 244 234 225 219 214 207 201 202 208
330 321 312 311 315 315 297 229 203 198 191 183 184 188 190 194 202 210 213 215 218 220 222 222 222 224 226 227 226 227 229 229 230 231 231 231 232 232 233 234 235 234 230 224 219 218 218 217 219 222 222 221 224 227 229 231 235 239 240 241 245 249 252 254 255 252 249 246 244 243 246 249 250 247 241 235 225 213 204 200 195 192 195 205 218
343 333 317 308 304 294 284 273 183 171 174 180 188 194 196 200 204 207 207 208 214 218 220 220 220 222 224 225 226 228 229 230 231 231 231 231 232 231 231 231 230 229 227 222 218 218 218 217 219 222 223 223 225 227 228 232 235 239 241 244 247 251 254 254 252 249 247 245 242 241 241 242 240 235 225 214 208 203 196 190 188 192 202 215 227
348 344 334 318 302 281 268 263 239 193 186 191 196 200 202 204 206 206 204 203 207 213 215 216 217 219 221 223 224 226 228 229 230 231 231 231 230 227 223 221 220 220 221 220 219 219 219 218 219 222 223 224 225 226 228 232 237 241 244 246 248 250 251 249 249 249 248 243 239 235 233 233 230 223 211 200 195 193 189 188 192 203 207 212 228
349 348 345 334 308 272 255 246 233 226 226 220 216 215 214 210 209 209 208 207 209 211 212 213 215 218 220 220 221 223 225 226 228 230 230 230 228 223 216 213 213 215 216 217 219 221 221 221 221 222 223 224 226 228 231 235 240 244 247 248 249 250 249 247 247 248 245 238 232 227 225 221 213 204 197 195 195 194 193 195 203 211 214 220 238
350 347 347 343 322 276 251 240 227 218 223 229 230 228 225 221 217 215 213 212 212 211 209 208 208 211 215 216 216 218 220 220 221 224 225 225 224 223 219 217 216 215 215 215 218 224 229 230 229 229 230 231 231 232 232 235 240 244 248 250 251 250 247 245 243 241 236 228 222 219 214 205 198 194 196 199 199 199 202 206 209 213 222 236 244
352 349 348 346 337 312 274 251 235 218 212 219 224 223 222 223 223 221 219 218 216 212 207 204 203 204 207 209 210 211 212 212 214 217 219 219 219 218 217 216 214 211 211 212 216 222 227 228 226 225 225 226 226 224 223 227 235 242 248 250 249 245 240 235 231 227 220 212 207 203 198 191 189 192 196 199 201 203 205 205 203 203 208 216 224
354 351 351 351 346 337 319 279 254 236 219 216 219 220 220 222 227 232 236 236 230 217 207 203 204 205 204 203 203 202 200 201 204 209 213 216 216 212 209 208 208 209 210 210 209 212 212 208 205 205 204 204 206 208 211 218 226 235 242 243 237 226 215 206 199 193 189 184 183 185 188 188 186 186 191 199 207 208 204 199 196 195 194 187 172
355 353 352 354 352 345 338 313 271 249 233 221 218 217 215 213 212 216 221 221 218 214 208 204 204 205 201 197 195 193 187 185 192 200 205 207 205 202 201 202 202 203 203 196 192 195 195 189 182 180 180 181 184 186 191 200 208 214 218 215 201 183 170 164 164 167 169 171 178 191 198 194 187 187 197 209 214 210 205 200 196 198 204 205 192
359 356 353 356 356 351 345 340 317 270 240 224 216 213 212 208 205 206 209 207 203 200 198 195 193 190 186 184 186 186 181 179 184 190 192 191 189 187 187 186 183 181 180 178 177 180 179 173 167 165 163 161 162 163 164 165 166 167 170 170 166 159 155 156 164 173 177 178 183 190 193 193 194 199 204 205 202 201 200 197 197 204 211 209 205
3 359 357 359 1 357 351 348 348 335 275 230 217 213 210 207 204 206 207 201 191 185 179 168 159 161 167 174 182 184 180 176 175 172 168 167 166 162 159 159 159 160 162 163 163 164 162 158 155 153 150 149 150 152 153 153 154 155 155 155 154 153 151 153 160 167 171 174 177 179 179 183 191 198 199 197 197 201 199 197 199 205 211 216 223
11 6 3 3 5 4 358 356 1 6 3 343 257 222 212 204 199 197 192 178 170 166 155 139 134 139 148 159 167 166 158 151 148 144 139 136 134 132 132 136 141 145 148 149 151 153 152 148 143 142 143 145 147 149 150 151 153 156 158 156 152 148 145 145 147 151 157 164 171 174 175 176 182 192 199 201 206 209 207 207 213 219 224 228 230
20 17 10 5 7 9 7 7 12 18 20 21 22 41 185 175 163 155 147 141 139 138 133 130 132 136 138 139 138 131 122 120 121 121 120 119 119 118 120 125 129 132 134 134 136 140 143 140 136 133 132 134 137 141 144 146 149 153 155 154 150 146 143 141 140 140 142 147 152 155 158 161 167 180 193 201 210 219 219 218 223 224 209 183 168
25 26 19 11 10 14 14 13 17 24 29 29 26 35 93 125 130 133 132 130 130 131 131 132 133 132 129 126 123 116 108 105 105 104 104 107 109 112 115 119 121 122 123 124 125 128 129 128 126 124 123 123 125 128 132 136 139 142 145 146 144 140 136 132 130 130 131 134 136 137 139 139 136 133 134 142 153 155 141 130 127 122 116 112 108
30 33 27 19 15 17 18 18 19 24 33 34 22 15 52 90 99 106 113 117 120 124 126 127 126 123 120 118 116 114 112 110 109 108 106 105 104 106 110 113 113 114 114 115 117 119 119 118 118 118 117 117 117 118 121 125 128 129 131 134 134 131 127 125 123 123 126 128 130 131 134 132 125 120 117 117 117 115 109 104 101 99 94 89 84
37 40 34 26 21 19 19 21 21 22 32 41 34 20 35 71 83 87 90 91 89 91 96 101 107 110 111 110 109 108 109 110 110 110 110 109 107 107 109 109 109 109 108 108 110 112 112 112 112 112 111 112 112 112 112 115 117 118 119 121 122 122 122 123 123 124 125 126 126 128 131 127 120 117 117 114 112 110 106 100 93 87 83 80 76
43 48 44 36 31 25 20 22 24 21 26 41 45 37 40 59 72 78 81 82 82 82 82 82 84 89 95 100 102 104 105 106 106 106 107 108 107 107 108 108 108 108 108 109 110 110 110 110 110 110 110 111 110 109 109 109 109 110 111 111 112 113 114 116 119 120 123 124 123 123 124 121 116 112 109 106 104 100 94 89 82 77 75 72 66
47 53 51 45 41 36 28 26 28 27 28 36 40 39 45 58 67 72 77 79 78 79 82 83 83 84 87 93 98 101 102 104 105 105 105 106 106 105 106 107 109 109 109 109 110 111 111 111 111 111 111 110 110 110 111 111 109 108 106 106 106 107 109 111 112 113 115 118 118 115 113 111 106 101 95 92 90 85 81 78 75 72 72 68 61
50 54 55 52 48 45 40 36 34 34 38 41 38 35 45 58 66 72 79 81 80 80 82 85 87 87 87 89 94 98 99 100 102 104 107 108 110 110 110 109 110 111 112 111 111 111 112 112 111 111 111 110 109 110 110 110 108 107 106 107 109 112 115 116 115 112 111 110 109 106 104 101 99 96 92 89 87 84 82 80 76 73 71 67 61
55 55 57 56 53 51 48 44 39 36 41 47 45 41 46 54 60 69 78 83 85 86 88 89 92 94 94 91 91 96 101 102 103 105 108 111 114 115 114 111 109 109 110 110 110 109 109 110 110 110 109 107 106 105 104 104 103 103 105 109 112 115 119 121 121 120 119 116 112 110 109 107 104 101 98 94 91 89 86 84 79 73 67 60 54
Height
791 795 798 801 803 806 808 811 813 815 817 819 820 821 823 825 827 829 831 832 834 835 836 837 839 840 841 842 843 845 846 847 848 849 850 851 852 853 854 855 855 856 857 857 857 858 858 858 858 858 859 859 859 860 860 861 861 861 861 861 861 862 862 862 862 860 859 859 858 858 858 858 857 856 855 854 854 853 852 851 850 849 848 847 847
787 791 794 798 800 802 805 808 810 813 815 816 817 818 820 822 824 827 828 830 831 833 834 835 836 837 838 840 841 842 843 845 846 847 848 849 850 851 852 853 853 854 855 855 856 856 857 857 857 858 858 858 859 859 859 860 860 860 860 860 860 861 861 861 861 860 858 857 857 857 856 856 856 855 854 853 852 852 851 850 849 848 847 847 846
784 788 791 794 796 799 802 805 807 810 812 813 814 815 817 819 821 823 825 827 829 830 831 833 834 835 836 837 838 840 841 843 844 845 846 847 848 849 850 851 851 852 853 853 854 855 855 855 856 856 857 857 857 858 859 859 859 859 859 859 859 859 860 860 859 859 858 856 856 855 855 855 855 854 854 853 851 850 850 849 848 847 847 846 845
782 785 788 790 793 796 799 802 805 807 809 810 811 813 815 816 818 820 822 824 825 827 829 830 832 833 834 835 836 838 839 840 842 843 844 845 846 847 848 849 849 850 851 851 852 853 854 854 854 855 856 856 856 856 857 857 857 857 858 858 858 858 858 859 858 858 857 856 855 854 854 854 853 853 852 851 850 850 848 847 846 846 845 845 844
778 782 785 788 790 793 796 798 801 803 805 807 809 810 812 814 816 817 819 821 822 824 826 827 829 830 831 832 834 835 837 838 839 840 842 843 844 845 846 847 847 848 849 850 850 851 852 852 852 853 854 854 854 854 855 855 856 856 856 856 856 857 857 857 857 857 856 855 854 853 853 853 852 851 851 850 849 848 847 846 845 844 844 843 843
775 778 781 784 787 789 792 794 797 799 802 804 806 808 810 811 813 814 816 818 820 821 822 824 826 827 829 830 831 832 834 835 837 838 839 841 842 843 844 845 846 846 847 848 849 849 850 850 851 852 852 852 852 852 853 854 854 854 855 855 855 855 856 856 856 856 855 854 853 852 852 851 850 849 849 849 848 846 845 844 844 843 843 842 841
771 774 777 780 783 785 787 790 793 796 798 801 803 806 808 809 811 812 813 815 817 818 820 821 823 824 826 827 829 830 831 833 834 836 837 839 840 841 842 843 844 845 845 846 847 847 848 848 849 849 850 850 850 851 851 852 852 852 852 853 854 854 854 854 854 854 854 853 852 851 850 850 849 848 847 848 847 846 845 843 841 841 842 841 841
767 771 773 776 778 780 783 787 789 792 795 798 800 803 805 807 808 809 811 813 814 815 817 818 820 821 823 824 826 827 829 830 831 833 835 837 838 839 840 841 842 843 844 844 845 845 846 846 847 847 848 848 848 849 849 849 850 850 850 851 852 852 852 852 852 852 852 851 851 850 849 848 847 846 846 846 846 845 845 845 842 840 840 840 840
764 767 769 771 774 777 780 784 786 789 792 794 796 799 801 803 805 807 809 810 811 813 814 816 817 819 820 821 823 824 826 827 828 830 832 834 835 837 838 839 840 841 841 842 842 843 843 844 844 844 845 845 846 847 847 848 848 848 848 849 849 850 850 850 850 850 850 850 849 849 848 847 846 845 845 845 845 844 844 844 843 840 839 838 839
760 763 765 767 770 773 777 780 783 785 788 790 792 795 797 800 802 804 805 807 808 810 812 813 815 816 817 818 820 821 822 824 825 827 829 831 832 834 835 836 837 838 839 840 840 840 841 841 841 842 842 843 844 844 845 846 846 846 846 846 847 848 848 848 848 848 848 848 847 847 847 845 844 844 844 843 844 843 843 843 842 841 839 837 836
755 758 760 763 766 769 772 775 778 781 783 786 788 791 794 797 799 801 802 804 806 807 809 810 811 813 814 815 817 818 819 820 822 824 825 827 829 831 832 833 834 835 836 837 837 837 838 838 839 839 840 840 841 842 842 843 844 844 844 844 844 845 845 846 846 846 846 846 845 845 845 843 842 843 843 842 842 842 842 841 841 840 839 837 835
749 751 754 758 761 763 766 769 772 775 778 781 784 787 790 793 795 797 799 801 803 804 806 807 808 810 811 812 813 814 815 817 818 820 822 824 826 828 829 830 831 832 833 834 834 835 835 836 836 837 837 837 838 839 840 840 841 841 841 842 842 843 843 843 843 844 844 844 843 843 842 841 840 841 842 841 841 841 840 840 840 839 839 838 836
746 747 750 753 755 757 761 763 766 770 773 776 779 783 786 789 791 794 796 798 800 801 802 803 805 806 808 809 810 811 812 814 815 817 819 820 823 825 826 827 828 829 830 831 831 832 832 833 834 834 834 835 835 836 837 837 838 838 839 839 840 840 840 841 841 842 842 842 841 840 840 840 839 839 840 840 840 840 839 839 839 838 838 837 835
744 745 747 748 750 753 755 757 761 764 768 771 775 778 781 784 787 790 793 795 796 797 799 800 802 803 804 805 806 807 809 810 812 813 815 817 819 822 824 825 826 826 827 828 829 829 830 831 831 831 831 832 833 833 834 834 835 836 836 837 837 837 838 838 838 839 839 839 839 837 838 839 838 837 839 839 838 838 838 837 837 837 837 835 833
741 743 744 745 746 748 750 752 756 759 763 767 769 772 776 779 782 786 789 791 792 794 795 797 798 799 800 802 803 804 805 806 808 810 812 814 816 819 821 822 823 824 824 825 826 826 827 828 828 828 828 829 829 830 831 832 832 833 833 834 834 834 834 835 835 836 836 836 836 835 836 837 837 836 837 837 836 836 836 836 836 835 835 833 831
736 738 740 741 743 744 746 749 751 754 758 761 764 767 771 774 778 782 785 787 789 790 792 793 794 795 797 798 800 800 801 802 804 806 808 811 813 816 818 819 820 821 821 822 823 823 824 825 825 826 826 826 826 827 828 829 830 830 830 830 830 830 830 831 832 833 833 833 833 833 834 834 835 834 834 834 834 833 833 833 833 833 833 831 829
733 734 735 737 739 741 743 746 748 751 754 756 759 762 766 770 774 778 781 783 784 786 787 789 791 792 793 795 796 796 797 799 800 802 804 807 810 812 814 816 817 818 818 818 819 820 821 821 822 822 823 823 823 824 826 827 827 827 827 827 827 827 827 828 829 830 830 831 831 831 831 832 832 832 832 832 832 831 831 830 830 830 830 829 827
733 732 732 732 735 737 739 742 744 747 749 751 754 758 762 766 770 773 776 778 780 782 784 785 787 788 790 791 792 793 794 795 797 799 801 803 806 808 810 812 813 814 814 815 816 816 817 818 819 819 819 819 820 821 822 824 824 824 824 824 824 824 823 824 826 827 827 828 828 828 828 829 829 829 829 829 829 829 827 826 826 827 827 826 825
732 731 730 730 731 733 735 737 739 741 743 746 749 753 757 761 765 769 772 774 776 779 780 782 783 784 786 787 789 790 791 792 793 795 797 800 802 805 807 808 810 810 811 811 812 813 813 814 815 815 815 815 816 817 819 820 821 821 821 821 821 820 820 821 823 823 824 824 825 825 825 826 826 826 826 826 826 825 824 822 823 823 822 821 821
728 727 726 726 727 728 730 732 734 736 738 741 745 749 753 757 761 764 767 770 773 775 777 778 779 780 782 784 785 786 787 789 790 791 794 796 798 801 803 804 806 806 806 807 808 809 809 810 810 811 812 812 813 814 815 816 817 817 818 818 817 816 816 818 820 820 821 821 822 822 823 823 823 823 823 822 822 821 820 819 819 818 818 818 818
723 722 721 721 722 723 725 727 729 731 734 738 742 745 749 752 756 759 763 766 769 771 773 774 776 777 778 780 781 782 783 785 786 788 790 792 794 797 799 800 801 802 802 803 804 804 805 805 806 807 808 808 809 810 811 812 813 814 814 814 814 814 815 816 817 818 819 819 819 820 820 820 820 819 819 819 818 817 816 816 815 815 814 815 816
718 717 717 717 718 719 721 723 725 727 731 734 738 741 744 748 752 755 759 762 764 767 769 771 772 773 774 776 777 778 779 781 782 784 786 787 789 792 794 795 796 797 798 799 799 800 801 801 801 802 803 804 806 807 808 809 810 810 810 810 811 812 813 814 814 815 816 816 817 817 817 817 817 816 816 815 814 814 813 813 812 812 812 812 813
716 714 714 714 715 715 717 719 722 724 727 730 734 737 741 745 748 752 755 758 761 763 765 767 768 769 770 771 772 773 775 777 778 779 781 783 785 787 789 790 791 793 794 794 795 795 797 797 798 798 800 801 802 804 805 806 807 806 807 808 809 810 811 812 812 812 813 813 814 814 814 814 813 813 812 811 811 811 811 810 810 810 810 811 811
714 712 711 711 711 712 713 715 718 721 723 726 730 734 738 741 745 748 751 754 756 758 760 762 764 765 766 767 767 769 770 772 773 775 776 778 780 782 784 786 787 789 790 790 791 792 793 793 794 795 797 798 799 801 802 803 803 803 804 805 807 808 808 808 808 809 810 810 810 810 810 810 809 809 808 808 808 808 809 808 809 809 809 809 810
712 710 708 708 708 709 710 712 714 717 720 723 726 730 734 738 741 744 747 749 751 753 755 758 759 760 761 762 762 763 765 767 769 770 771 773 775 777 779 782 784 786 786 786 787 789 789 790 791 792 794 795 796 798 799 799 800 800 801 802 803 804 804 804 805 806 806 806 806 806 806 806 805 805 805 805 805 806 806 806 807 807 807 808 808
711 708 707 705 705 706 707 708 711 714 717 719 722 725 729 733 736 739 742 744 745 747 749 752 754 755 756 756 757 759 762 763 765 765 767 769 771 773 775 777 780 782 783 783 784 785 786 788 789 790 791 792 793 794 795 796 797 797 798 799 799 800 800 801 801 802 802 802 802 802 802 802 802 802 803 803 803 803 803 804 804 805 805 805 805
710 707 705 704 703 703 704 705 707 711 714 716 719 722 725 728 731 733 735 737 740 742 744 746 748 749 750 752 754 756 758 759 760 760 762 764 766 768 771 773 776 778 779 779 780 782 783 785 786 787 788 789 790 791 791 792 793 794 795 795 796 796 797 797 798 798 798 798 798 798 799 799 799 799 800 800 800 800 801 801 802 802 803 803 804
709 706 704 702 701 700 700 701 704 707 710 712 715 718 720 723 726 727 729 731 734 736 739 740 741 742 745 748 751 753 754 754 753 754 755 758 760 763 766 768 771 772 773 773 775 778 780 781 782 784 785 786 787 787 788 789 790 791 792 792 792 793 793 794 795 795 795 795 795 795 796 796 795 796 797 797 798 798 799 799 800 800 801 802 802
707 705 703 700 699 698 698 699 700 703 705 708 710 713 715 717 719 721 723 725 727 730 732 733 735 738 741 744 745 747 747 745 745 746 750 752 755 758 760 762 764 765 766 768 771 774 775 777 779 780 781 782 783 783 784 786 787 788 789 789 789 790 790 790 791 791 791 792 792 792 792 792 792 793 794 795 795 796 797 797 798 799 800 800 801
705 703 701 699 698 696 696 696 697 699 701 704 706 709 711 713 715 717 719 721 722 724 725 727 729 733 736 737 738 739 739 739 741 745 747 749 750 752 754 756 758 760 762 765 768 769 771 772 774 775 776 777 778 779 781 782 783 784 785 785 786 787 787 787 788 788 788 788 788 789 790 790 790 790 791 792 793 794 795 796 796 797 798 799 799
704 702 700 699 697 695 695 695 695 696 698 700 703 706 708 711 713 714 715 717 718 720 721 723 725 728 730 731 733 735 736 738 741 743 745 745 747 748 750 752 755 757 759 761 763 764 766 767 768 770 771 772 773 775 776 778 779 780 781 781 782 783 783 784 784 784 784 785 785 786 787 787 787 788 789 790 792 793 794 794 795 795 796 797 798
703 701 699 698 696 695 694 694 695 696 697 698 700 702 705 708 709 710 711 713 714 715 717 719 721 723 724 725 728 730 732 735 737 739 741 743 744 746 748 750 752 754 756 757 758 758 760 762 763 764 766 767 768 770 771 773 774 775 776 777 777 778 779 779 780 780 781 781 782 783 784 784 785 785 787 789 790 791 792 792 793 794 795 796 796
703 700 698 697 696 695 694 694 694 695 697 698 700 701 702 704 705 706 708 710 711 712 713 714 716 717 719 720 722 724 727 730 732 735 737 739 741 743 745 747 748 750 751 752 753 754 755 757 758 759 760 762 763 765 767 768 769 770 771 772 773 774 774 775 776 777 777 777 779 780 781 781 782 782 784 786 787 789 790 791 792 793 794 794 795
703 700 697 696 695 695 695 695 694 693 695 697 699 698 698 698 698 700 703 705 707 708 708 709 711 712 714 716 718 720 723 725 728 730 733 735 737 740 742 743 744 745 746 747 747 749 750 752 753 754 756 757 759 761 763 764 766 767 768 769 770 771 772 772 773 773 773 775 776 777 777 778 778 779 781 782 784 786 787 788 790 791 791 792 792
704 700 697 695 694 693 693 694 695 694 694 694 692 690 689 689 691 693 695 697 700 701 702 703 705 707 709 711 714 717 719 721 724 727 729 731 734 736 738 738 739 740 741 743 744 744 746 747 748 749 752 753 755 757 759 761 763 764 765 766 767 768 769 769 770 770 770 772 773 774 774 775 775 776 778 779 781 782 783 785 787 788 788 789 789
704 701 697 695 693 692 691 691 692 695 697 696 692 689 688 687 687 688 689 690 692 694 696 699 701 704 706 707 710 713 716 719 721 724 726 728 730 731 732 733 734 735 737 738 740 742 743 745 746 748 749 751 753 755 757 759 760 761 763 764 764 765 766 766 766 767 768 769 771 772 772 773 774 775 777 778 779 780 781 782 784 785 786 787 787
705 702 698 695 693 691 690 689 688 690 692 693 691 689 689 688 687 686 686 687 689 692 694 696 698 701 703 705 706 708 712 716 719 721 723 724 726 727 728 728 730 733 735 738 742 745 747 748 749 750 750 751 752 754 755 756 758 759 759 760 761 761 762 763 764 765 766 767 768 769 769 771 773 774 775 777 778 779 780 781 782 783 784 784 785
706 702 700 697 693 691 690 688 687 687 688 688 687 686 685 685 685 685 685 687 688 691 693 695 697 698 700 701 703 706 709 713 716 717 719 721 721 723 724 726 728 730 732 735 739 744 747 749 749 748 747 748 749 750 751 753 754 755 756 757 758 758 759 760 761 762 763 764 765 766 766 768 770 772 774 776 778 779 780 780 780 781 782 783 783
705 702 700 697 694 692 690 687 685 685 685 685 684 684 684 685 688 689 690 692 694 694 694 694 696 697 697 699 702 704 706 709 712 714 717 718 719 720 722 723 725 727 729 732 736 740 744 746 745 743 743 744 745 746 748 749 751 753 754 755 755 756 757 758 760 761 763 764 766 768 768 768 770 771 773 775 777 777 778 778 778 780 781 782 783
705 702 700 697 694 692 690 687 684 682 681 680 680 680 681 683 685 687 688 690 694 695 694 693 694 695 695 697 699 701 704 707 710 713 715 716 717 718 719 720 721 723 726 730 734 737 739 740 740 740 740 742 743 744 746 747 749 751 753 754 755 756 758 759 761 762 763 765 769 771 771 770 770 771 772 774 775 776 776 776 777 778 780 781 782
705 703 701 698 696 693 691 688 684 681 679 678 677 675 675 676 677 678 678 679 682 685 687 689 690 692 693 695 697 698 699 701 705 709 712 714 716 717 717 717 719 721 725 728 731 732 733 735 736 736 737 739 741 742 744 746 748 750 752 754 755 756 758 759 761 762 763 765 767 770 770 770 770 771 772 772 774 775 775 775 776 777 779 780 780
707 705 703 700 698 696 694 690 686 682 679 677 676 675 674 674 674 674 675 677 678 680 683 685 688 690 692 694 695 694 693 694 699 704 709 713 715 716 716 717 718 720 723 725 727 728 729 730 732 733 735 737 740 742 744 745 747 749 752 754 755 756 757 759 760 762 763 765 766 768 768 769 770 771 772 772 773 774 774 775 776 776 778 778 779
709 708 706 704 701 700 698 694 689 685 681 678 676 675 674 673 673 674 675 677 678 679 681 683 686 690 693 695 695 694 692 692 696 701 706 711 715 716 717 717 718 719 721 723 724 726 727 728 729 731 733 737 739 741 743 745 747 749 751 753 755 757 758 759 760 762 763 764 765 766 767 768 769 771 772 772 773 773 774 774 774 775 776 777 777
711 709 709 708 706 703 701 698 693 689 685 681 678 676 674 673 673 674 676 677 678 680 681 683 685 688 691 693 695 696 694 693 696 701 707 711 714 716 717 718 719 719 720 722 724 725 726 727 729 731 734 737 740 742 744 746 748 750 751 753 754 757 758 760 761 762 763 764 765 765 766 768 769 771 772 772 773 773 773 773 773 774 774 775 775
714 712 711 711 709 705 702 700 698 694 690 686 683 681 678 675 674 674 676 678 679 679 680 681 683 685 687 689 691 693 694 694 698 704 710 714 716 717 718 720 720 720 721 722 724 726 727 728 729 732 735 740 742 744 746 748 750 752 753 754 755 757 759 760 761 762 763 764 765 766 767 769 770 771 772 773 773 773 773 773 773 773 773 774 774
717 714 712 712 712 709 706 704 702 700 695 692 690 689 685 680 678 678 679 680 681 681 680 679 680 682 685 687 688 691 694 696 700 705 711 717 720 721 721 721 721 721 722 724 726 728 730 732 732 734 738 742 744 746 748 750 753 755 756 756 757 758 760 761 762 763 764 765 766 767 768 770 771 772 773 773 774 774 774 774 774 774 774 774 774
719 716 715 714 714 712 710 708 706 705 702 698 697 697 692 685 681 682 683 684 686 687 686 684 684 685 686 688 690 693 697 700 702 706 711 717 723 725 724 723 723 724 725 727 729 731 734 736 737 738 741 744 747 749 751 753 755 757 757 757 758 760 761 762 764 765 766 767 768 769 770 771 772 773 774 774 774 774 774 774 774 774 774 775 775
721 719 718 717 716 715 714 712 711 710 708 704 703 704 701 693 687 686 687 688 690 692 693 693 695 695 694 693 694 698 702 705 707 710 713 718 725 728 727 726 726 728 729 730 733 736 738 739 740 742 745 748 750 751 753 756 758 758 758 759 760 762 763 764 765 766 767 768 769 770 771 772 773 774 775 775 775 775 775 775 775 775 775 775 775
724 722 721 720 719 718 718 717 716 716 714 710 709 710 708 701 695 693 692 693 696 698 699 699 701 704 705 702 701 704 708 710 711 714 717 721 725 729 730 730 731 732 734 735 737 739 740 742 743 746 749 751 752 753 756 758 759 760 760 761 762 764 765 766 767 767 768 768 769 770 772 773 774 775 775 776 776 776 776 776 776 776 776 776 776
727 725 724 723 722 721 721 722 722 721 719 717 716 716 713 708 704 701 699 699 702 704 705 705 707 710 712 711 710 711 713 714 716 718 720 724 727 730 732 734 736 737 738 740 741 742 743 745 747 749 751 753 755 756 758 759 760 761 762 763 764 765 766 767 768 768 769 769 770 771 772 773 774 775 776 776 777 777 777 777 777 777 777 777 777
729 728 727 726 725 724 723 723 724 725 724 723 723 722 719 715 712 708 705 705 707 709 711 712 713 713 714 716 718 718 717 718 721 724 726 729 731 732 733 737 740 742 743 743 744 746 748 750 752 753 754 756 758 760 761 761 762 764 765 766 766 766 767 768 768 768 769 769 770 771 772 773 774 775 775 776 776 776 776 777 777 777 777 778 778